Location: Twentynine Palms Airport
(34.1316°N, 115.9458°W)
Time: 20:58:06
(UTC-07:00)

Amateur Radio Satellites - All Passes

Search period start: 27 May 2016 20:28
Search period end: 28 May 2016 20:28
Location: Twentynine Palms Airport, 34.1316°N, 115.9458°W

Satellite Date Start Highest point End Downlink Frequencies (MHz)
Time Altitude Azimuth
CUBEBUG 2 27 May 20:28:32 20:32:42 42° 74° (ENE) 20:36:46 437.445
AIST 1 27 May 20:30:47 20:34:19 24° 89° (E) 20:37:53
HO-68 27 May 20:31:51 20:38:53 61° 258° (WSW) 20:45:57 435.675
PRISM 27 May 20:34:47 20:38:29 30° 98° (E) 20:42:10 437.425
BEESAT 3 27 May 20:34:57 20:38:51 56° 60° (ENE) 20:42:42 437.485
O/OREOS (USA 219) 27 May 20:39:06 20:42:35 23° 258° (WSW) 20:46:03 437.305
ISS 27 May 20:42:15 20:45:28 59° 134° (SE) 20:48:41 145.825
PCSat 27 May 20:46:08 20:49:27 17° 256° (WSW) 20:52:46 145.827
DOVE 4 27 May 20:50:32 20:52:04 11° 269° (W) 20:53:36 437.250
Cosmos 2499 27 May 20:53:50 20:55:44 11° 77° (ENE) 20:57:38 435.465 / 435.565
UWE-3 27 May 20:56:38 21:00:55 62° 76° (ENE) 21:05:06 435.000/436.395/437.385
DELFI C3 27 May 20:57:07 20:59:52 18° 70° (ENE) 21:02:39 145.870
GONETS M04 27 May 20:59:59 21:07:31 33° 86° (E) 21:14:59
FUNcube-1 27 May 21:00:35 21:04:33 40° 74° (ENE) 21:08:27 145.935
CANX-2 27 May 21:14:13 21:16:22 14° 267° (W) 21:18:33 2200.000
SEEDS 27 May 21:15:25 21:18:34 21° 265° (W) 21:21:44 437.485
CINEMA 3 27 May 21:18:24 21:21:18 16° 266° (W) 21:24:08 145.822/145.860
RS-15 27 May 21:22:46 21:28:23 14° 345° (NNW) 21:34:06 29.354- 29.394
BEESAT 2 27 May 21:38:13 21:42:01 44° 245° (WSW) 21:45:47 435.950
DANDE 27 May 21:43:24 21:46:38 13° 61° (ENE) 21:49:43 436.750
Oscar 11 27 May 21:43:51 21:47:58 46° 261° (W) 21:52:08 145.826/435.025
CUSAT 1 27 May 21:46:18 21:52:03 23° 67° (ENE) 21:57:03 437.405
ZACube-1 27 May 21:58:51 22:02:44 34° 262° (W) 22:06:35 437.345
PHONESAT 2.4 27 May 22:02:38 22:05:46 78° 334° (NNW) 22:08:54 2401.200-2431.200
HUMSAT D 27 May 22:04:49 22:08:48 55° 76° (ENE) 22:12:48 437.325/437.525
CUBEBUG 2 27 May 22:07:19 22:09:26 13° 266° (W) 22:11:32 437.445
AIST 1 27 May 22:08:23 22:11:48 22° 284° (WNW) 22:15:15
PRISM 27 May 22:10:46 22:13:32 17° 292° (WNW) 22:16:17 437.425
AIST 2 27 May 22:12:05 22:15:19 22° 53° (NE) 22:18:33 435.215
ANTELSAT 27 May 22:18:56 22:22:21 22° 96° (E) 22:25:47 437.575/2403.000
ISS 27 May 22:20:15 22:22:10 14° 330° (NNW) 22:24:04 145.825
DELFI C3 27 May 22:31:14 22:34:32 25° 264° (W) 22:37:52 145.870
FUNcube-1 27 May 22:38:57 22:40:55 13° 267° (W) 22:42:52 145.935
Cosmos 2499 27 May 22:40:16 22:47:26 89° 96° (E) 22:55:08 435.465 / 435.565
AISAT 27 May 22:46:39 22:49:59 21° 69° (ENE) 22:53:19 437.250
UKube-1 27 May 22:53:57 22:56:32 16° 67° (ENE) 22:59:06 .
GONETS M04 27 May 22:55:36 23:03:57 46° 282° (WNW) 23:12:18
QB50P2 27 May 23:00:38 23:01:15 10° 92° (E) 23:01:51 145.880/145.840
POLYITAN 1 27 May 23:02:52 23:03:42 10° 92° (E) 23:04:34 437.675
50 SAT 27 May 23:05:25 23:08:38 31° 73° (ENE) 23:11:53 437.505
UNISAT 6 27 May 23:13:33 23:17:52 78° 283° (WNW) 23:22:15 437.425
NANOSAT C BR1 27 May 23:14:54 23:17:15 15° 94° (E) 23:19:34 145.865
TIGRISAT 27 May 23:21:02 23:25:18 67° 285° (WNW) 23:29:39 435.000
DANDE 27 May 23:22:38 23:31:03 70° 80° (E) 23:38:21 436.750
ESTCUBE 1 27 May 23:24:42 23:29:12 83° 76° (ENE) 23:33:45 437.505/2401.250
CUSAT 1 27 May 23:27:25 23:34:45 56° 268° (W) 23:40:41 437.405
CUBEBUG 1 27 May 23:37:46 23:42:12 80° 75° (ENE) 23:46:38 437.445
DX 1 27 May 23:39:11 23:43:32 68° 75° (ENE) 23:47:54 434.975-435.025
PHONESAT 2.4 27 May 23:40:04 23:42:48 26° 352° (N) 23:45:31 2401.200-2431.200
RS-15 27 May 23:41:26 23:48:36 17° 24° (NNE) 23:55:47 29.354- 29.394
VELOX 1 27 May 23:45:31 23:49:59 85° 259° (W) 23:54:28 145.980
AIST 2 27 May 23:50:13 23:53:46 28° 248° (WSW) 23:57:19 435.215
DUCHIFAT 1 27 May 23:51:59 23:55:54 39° 99° (E) 23:59:49 145.980
ANTELSAT 27 May 23:55:25 23:58:58 25° 289° (WNW) 00:02:33 437.575/2403.000
SPROUT 28 May 00:03:32 00:07:44 56° 75° (ENE) 00:11:56 437.525
BUGSAT 1 28 May 00:09:13 00:12:38 26° 97° (E) 00:16:02 437.445
SO-50 28 May 00:20:27 00:25:21 80° 299° (WNW) 00:30:17 436.795
JAS-2 28 May 00:22:04 00:27:02 20° 90° (E) 00:31:37 435.910
AISAT 28 May 00:22:20 00:26:15 29° 263° (W) 00:30:10 437.250
TISAT 1 28 May 00:27:10 00:30:42 26° 71° (ENE) 00:34:14 437.305
UKube-1 28 May 00:28:12 00:32:13 38° 261° (W) 00:36:16 .
POPSAT HIP 1 28 May 00:30:22 00:34:30 59° 285° (WNW) 00:38:37 437.405
QB50P1 28 May 00:30:45 00:34:52 57° 285° (WNW) 00:38:58 145.935-145.965
QB50P2 28 May 00:33:13 00:37:18 50° 285° (WNW) 00:41:21 145.880/145.840
POLYITAN 1 28 May 00:35:42 00:39:45 48° 285° (WNW) 00:43:47 437.675
Cosmos 2499 28 May 00:38:36 00:41:42 13° 295° (WNW) 00:44:53 435.465 / 435.565
50 SAT 28 May 00:41:01 00:42:26 12° 266° (W) 00:43:52 437.505
NANOSAT C BR1 28 May 00:49:14 00:53:03 35° 287° (WNW) 00:56:52 145.865
Oscar 19 28 May 00:55:19 00:57:29 13° 92° (E) 00:59:39 437.125/150
DANDE 28 May 01:07:07 01:12:55 22° 278° (W) 01:18:16 436.750
PHONESAT 2.4 28 May 01:17:17 01:20:03 28° 9° (N) 01:22:49 2401.200-2431.200
SWISSCUBE 28 May 01:19:28 01:23:04 22° 68° (ENE) 01:26:40 437.505
ITUPSAT 1 28 May 01:25:47 01:29:26 22° 68° (ENE) 01:33:05 437.325
DUCHIFAT 1 28 May 01:29:06 01:31:13 14° 293° (WNW) 01:33:21 145.980
BUGSAT 1 28 May 01:45:02 01:47:48 18° 291° (WNW) 01:50:33 437.445
BEESAT 28 May 01:48:11 01:52:36 40° 72° (ENE) 01:57:02 436.000
RS-15 28 May 01:53:13 02:05:08 51° 53° (NE) 02:16:54 29.354- 29.394
TISAT 1 28 May 02:03:08 02:06:17 20° 264° (W) 02:09:27 437.305
JAS-2 28 May 02:05:23 02:12:38 62° 288° (WNW) 02:19:02 435.910
SO-50 28 May 02:05:44 02:06:35 10° 316° (NW) 02:07:27 436.795
Cosmos 2491 28 May 02:20:00 02:22:48 12° 77° (ENE) 02:25:36 435.465 / 435.565
Oscar 19 28 May 02:32:04 02:37:09 61° 286° (WNW) 02:42:11 437.125/150
KKS-1 28 May 02:38:47 02:41:19 15° 67° (ENE) 02:43:51 437.445
PHONESAT 2.4 28 May 02:53:53 02:57:01 87° 203° (SSW) 03:00:08 2401.200-2431.200
SWISSCUBE 28 May 02:56:25 03:00:37 32° 262° (W) 03:04:53 437.505
MOZHAYETS 4 28 May 02:56:55 02:59:51 17° 68° (ENE) 03:02:50
Gurwin Techsat 1B 28 May 02:58:07 03:03:28 86° 283° (WNW) 03:08:47 435.225
ITUPSAT 1 28 May 03:02:51 03:07:02 31° 262° (W) 03:11:16 437.325
STARS 28 May 03:12:46 03:15:43 18° 68° (ENE) 03:18:40 437.465
ISS 28 May 03:13:41 03:15:43 15° 30° (NNE) 03:17:44 145.825
ITAMSAT 1 28 May 03:14:32 03:19:36 50° 100° (E) 03:24:40 435.822/435.867
YUBILEINY 28 May 03:19:33 03:28:15 64° 81° (E) 03:36:57 435.215
BEESAT 28 May 03:27:25 03:30:29 17° 266° (W) 03:33:34 436.000
AO-7 28 May 03:35:09 03:42:25 32° 98° (E) 03:49:38 29.400- 29.500
Cosmos 2504 28 May 04:02:35 04:10:13 35° 76° (ENE) 04:18:03 435.465 / 435.565
RS-15 28 May 04:06:04 04:17:28 46° 252° (WSW) 04:28:44 29.354- 29.394
Cosmos 2491 28 May 04:09:17 04:18:07 80° 94° (E) 04:26:58 435.465 / 435.565
KKS-1 28 May 04:13:15 04:17:29 42° 261° (W) 04:21:45 437.445
CUBESAT XI-V 28 May 04:23:37 04:26:31 17° 67° (ENE) 04:29:26 437.345
PHONESAT 2.4 28 May 04:32:03 04:33:24 12° 218° (SW) 04:34:45 2401.200-2431.200
MOZHAYETS 4 28 May 04:32:29 04:36:42 37° 262° (W) 04:40:56
STARS 28 May 04:47:46 04:51:47 34° 261° (W) 04:55:48 437.465
ISS 28 May 04:49:11 04:52:22 52° 226° (SW) 04:55:32 145.825
ITAMSAT 1 28 May 04:55:19 04:58:38 17° 295° (WNW) 05:01:56 435.822/435.867
JUGNU 28 May 05:07:08 05:09:41 13° 166° (SSE) 05:12:13 437.505
YUBILEINY 28 May 05:17:54 05:24:14 23° 278° (W) 05:30:36 435.215
AO-7 28 May 05:27:20 05:35:17 50° 294° (WNW) 05:43:14 29.400- 29.500
HORYU 2 28 May 05:34:16 05:38:43 89° 295° (WNW) 05:43:10 437.375
NOAA 15 28 May 05:41:26 05:44:54 17° 94° (E) 05:48:20 137.62
AO-85 28 May 05:45:58 05:51:25 87° 118° (ESE) 05:56:50 145.980
Cubesat XI-IV 28 May 05:49:01 05:51:37 14° 92° (E) 05:54:13 437.490
NOAA 18 28 May 05:51:10 05:54:52 18° 95° (E) 05:58:35 137.9125
Cosmos 2504 28 May 05:55:37 06:03:36 46° 271° (W) 06:11:52 435.465 / 435.565
STRAND 1 28 May 05:56:28 05:58:50 13° 64° (ENE) 06:01:11 437.568
CUBESAT XI-V 28 May 05:59:07 06:03:31 41° 262° (W) 06:07:58 437.345
BRITE-PL 28 May 06:05:42 06:09:35 23° 93° (E) 06:13:14 437.365/2234.400
Cosmos 2491 28 May 06:10:10 06:15:51 18° 292° (WNW) 06:21:34 435.465 / 435.565
LilacSat-2 28 May 06:24:06 06:27:17 26° 97° (E) 06:30:30 437.200
GOMX 1 28 May 06:28:00 06:30:43 16° 92° (E) 06:33:21 467.674
CUTE-I 28 May 06:33:04 06:38:06 40° 99° (E) 06:43:06 437.470
JUGNU 28 May 06:53:51 06:58:00 19° 175° (S) 07:02:09 437.505
SRMSAT 28 May 07:02:27 07:04:16 11° 164° (SSE) 07:06:05 437.500
DOVE 4 28 May 07:12:59 07:16:17 21° 95° (E) 07:19:31 437.250
GONETS M04 28 May 07:17:43 07:20:22 11° 64° (ENE) 07:23:00
NOAA 15 28 May 07:19:48 07:24:52 47° 288° (WNW) 07:29:53 137.62
PRISM 28 May 07:21:56 07:24:10 14° 67° (ENE) 07:26:25 437.425
Cubesat XI-IV 28 May 07:26:44 07:32:01 61° 286° (WNW) 07:37:17 437.490
AO-85 28 May 07:29:44 07:32:34 14° 314° (NW) 07:35:22 145.980
NOAA 18 28 May 07:30:28 07:35:43 48° 288° (WNW) 07:40:57 137.9125
STRAND 1 28 May 07:32:23 07:37:25 63° 259° (WSW) 07:42:29 437.568
CINEMA 3 28 May 07:40:29 07:41:36 11° 92° (E) 07:42:43 145.822/145.860
BRITE-PL 28 May 07:43:44 07:48:04 30° 290° (WNW) 07:52:05 437.365/2234.400
M-CUBED/EXP-1 PRIME 28 May 07:50:55 07:52:03 11° 99° (E) 07:53:13 437.505
CUTE 1.7 + AOD 2 28 May 07:53:10 07:55:55 16° 94° (E) 07:58:38 437.475
LilacSat-2 28 May 07:58:58 08:01:22 16° 290° (WNW) 08:03:46 437.200
PCSat 28 May 08:00:20 08:01:33 11° 102° (ESE) 08:02:46 145.827
HO-68 28 May 08:04:00 08:10:19 33° 98° (E) 08:16:35 435.675
GOMX 1 28 May 08:04:48 08:09:00 36° 288° (WNW) 08:12:57 467.674
COMPASS 1 28 May 08:12:49 08:14:55 13° 93° (E) 08:17:00 437.405
CUTE-I 28 May 08:13:48 08:17:49 22° 293° (WNW) 08:21:52 437.470
AAUSAT CUBESAT 2 28 May 08:15:34 08:16:40 11° 92° (E) 08:17:47 437.432
AIST 1 28 May 08:18:09 08:22:27 61° 82° (E) 08:26:41
CUBEBUG 2 28 May 08:25:22 08:26:24 11° 93° (E) 08:27:26 437.445
Cosmos 2499 28 May 08:35:29 08:42:39 28° 73° (ENE) 08:49:54 435.465 / 435.565
JUGNU 28 May 08:42:16 08:46:21 19° 186° (S) 08:50:25 437.505
SRMSAT 28 May 08:48:43 08:52:43 19° 174° (S) 08:56:44 437.500
DOVE 4 28 May 08:50:28 08:53:56 24° 290° (WNW) 08:57:18 437.250
UWE-3 28 May 08:51:01 08:53:35 16° 94° (E) 08:56:10 435.000/436.395/437.385
PRISM 28 May 08:55:15 08:59:06 38° 261° (W) 09:03:00 437.425
SO-50 28 May 08:56:01 09:00:14 32° 54° (NE) 09:04:19 436.795
CANX-2 28 May 09:00:30 09:04:45 61° 284° (WNW) 09:08:59 2200.000
SEEDS 28 May 09:01:40 09:05:57 83° 102° (ESE) 09:10:12 437.485
O/OREOS (USA 219) 28 May 09:07:21 09:11:51 63° 107° (ESE) 09:16:21 437.305
GONETS M04 28 May 09:09:56 09:18:40 75° 83° (E) 09:27:19
CINEMA 3 28 May 09:15:00 09:18:57 44° 286° (WNW) 09:22:54 145.822/145.860
ANTELSAT 28 May 09:15:43 09:17:46 13° 67° (ENE) 09:19:48 437.575/2403.000
AUBIESAT-1 28 May 09:16:13 09:19:22 42° 290° (WNW) 09:22:32 437.475
M-CUBED/EXP-1 PRIME 28 May 09:23:57 09:26:42 25° 292° (WNW) 09:29:26 437.505
CUTE 1.7 + AOD 2 28 May 09:27:57 09:31:48 33° 287° (WNW) 09:35:38 437.475
Oscar 11 28 May 09:34:39 09:38:44 39° 99° (E) 09:42:48 145.826/435.025
PCSat 28 May 09:38:48 09:44:12 77° 296° (WNW) 09:49:39 145.827
COMPASS 1 28 May 09:46:40 09:50:36 39° 286° (WNW) 09:54:31 437.405
AAUSAT CUBESAT 2 28 May 09:48:19 09:52:21 47° 286° (WNW) 09:56:23 437.432
ZACube-1 28 May 09:50:11 09:54:19 54° 100° (E) 09:58:31 437.345
HO-68 28 May 09:51:24 09:58:00 41° 293° (WNW) 10:04:36 435.675
HUMSAT D 28 May 09:53:51 09:55:25 12° 93° (E) 09:56:59 437.325/437.525
CUBEBUG 2 28 May 09:59:13 10:03:13 47° 285° (WNW) 10:07:17 437.445
UNISAT 6 28 May 10:08:34 10:12:51 56° 75° (ENE) 10:17:05 437.425
DELFI C3 28 May 10:11:49 10:15:44 49° 100° (E) 10:19:39 145.870
TIGRISAT 28 May 10:15:47 10:20:07 65° 76° (ENE) 10:24:23 435.000
BEESAT 3 28 May 10:22:42 10:25:51 23° 111° (ESE) 10:29:00 437.485
UWE-3 28 May 10:26:19 10:30:05 33° 287° (WNW) 10:33:55 435.000/436.395/437.385
Cosmos 2499 28 May 10:27:37 10:36:05 58° 269° (W) 10:44:43 435.465 / 435.565
FUNcube-1 28 May 10:27:53 10:31:59 53° 285° (WNW) 10:36:09 145.935
JUGNU 28 May 10:32:33 10:34:39 12° 195° (SSW) 10:36:45 437.505
SO-50 28 May 10:36:57 10:40:28 22° 250° (WSW) 10:43:55 436.795
SRMSAT 28 May 10:37:06 10:41:14 19° 184° (S) 10:45:21 437.500
DUCHIFAT 1 28 May 10:41:01 10:43:58 19° 69° (ENE) 10:46:56 145.980
CUSAT 1 28 May 10:42:55 10:47:54 26° 84° (E) 10:53:43 437.405
ANTELSAT 28 May 10:49:53 10:54:05 45° 261° (W) 10:58:13 437.575/2403.000
O/OREOS (USA 219) 28 May 10:50:18 10:51:39 11° 303° (WNW) 10:53:00 437.305
BUGSAT 1 28 May 10:56:51 10:58:43 13° 67° (ENE) 11:00:36 437.445
GONETS M04 28 May 11:09:01 11:14:25 18° 279° (W) 11:19:50
Oscar 11 28 May 11:12:02 11:14:29 15° 292° (WNW) 11:16:56 145.826/435.025
POPSAT HIP 1 28 May 11:18:46 11:22:56 60° 75° (ENE) 11:27:07 437.405
QB50P1 28 May 11:19:04 11:23:15 62° 76° (ENE) 11:27:26 145.935-145.965
ESTCUBE 1 28 May 11:21:36 11:25:14 23° 96° (E) 11:28:50 437.505/2401.250
QB50P2 28 May 11:21:38 11:25:52 71° 76° (ENE) 11:30:05 145.880/145.840
POLYITAN 1 28 May 11:24:06 11:28:20 73° 77° (ENE) 11:32:33 437.675
BEESAT 2 28 May 11:26:15 11:30:12 78° 117° (ESE) 11:34:11 435.950
HUMSAT D 28 May 11:27:14 11:31:12 43° 286° (WNW) 11:35:11 437.325/437.525
PCSat 28 May 11:27:33 11:28:28 10° 314° (NW) 11:29:22 145.827
ZACube-1 28 May 11:29:21 11:30:08 10° 294° (WNW) 11:30:54 437.345
CUBEBUG 1 28 May 11:31:07 11:34:15 19° 95° (E) 11:37:21 437.445
DX 1 28 May 11:32:29 11:35:05 15° 94° (E) 11:37:39 434.975-435.025
NANOSAT C BR1 28 May 11:36:57 11:41:10 83° 255° (WSW) 11:45:25 145.865
VELOX 1 28 May 11:40:03 11:43:36 24° 96° (E) 11:47:09 145.980
DELFI C3 28 May 11:49:24 11:50:07 10° 293° (WNW) 11:50:51 145.870
SPROUT 28 May 11:55:10 11:56:59 13° 93° (E) 11:58:50 437.525
BEESAT 3 28 May 12:00:15 12:03:25 23° 306° (NW) 12:06:37 437.485
Oscar 19 28 May 12:08:43 12:11:20 14° 64° (ENE) 12:13:58 437.125/150
JAS-2 28 May 12:11:19 12:18:07 44° 69° (ENE) 12:25:23 435.910
50 SAT 28 May 12:11:25 12:15:09 72° 101° (ESE) 12:18:52 437.505
AISAT 28 May 12:15:35 12:19:59 68° 102° (ESE) 12:24:20 437.250
DUCHIFAT 1 28 May 12:15:46 12:19:27 29° 263° (W) 12:23:07 145.980
UKube-1 28 May 12:18:44 12:22:53 44° 100° (E) 12:26:59 .
CUSAT 1 28 May 12:23:30 12:29:25 48° 285° (WNW) 12:36:41 437.405
DANDE 28 May 12:26:02 12:31:13 88° 97° (E) 12:38:10 436.750
SRMSAT 28 May 12:27:04 12:29:41 13° 194° (SSW) 12:32:19 437.500
BUGSAT 1 28 May 12:29:40 12:33:41 44° 261° (W) 12:37:42 437.445
Gurwin Techsat 1B 28 May 12:39:55 12:41:28 11° 62° (ENE) 12:43:02 435.225
ESTCUBE 1 28 May 12:58:08 13:01:57 27° 290° (WNW) 13:05:45 437.505/2401.250
CUBEBUG 1 28 May 13:06:44 13:10:31 29° 289° (WNW) 13:14:16 437.445
DX 1 28 May 13:07:22 13:11:21 36° 288° (WNW) 13:15:19 434.975-435.025
VELOX 1 28 May 13:16:22 13:19:58 25° 290° (WNW) 13:23:32 145.980
SPROUT 28 May 13:29:06 13:33:07 42° 286° (WNW) 13:37:07 437.525
AIST 2 28 May 13:43:30 13:47:32 55° 300° (WNW) 13:51:36 435.215
Oscar 19 28 May 13:44:57 13:50:05 62° 259° (WSW) 13:55:15 437.125/150
TISAT 1 28 May 13:49:28 13:53:38 80° 101° (E) 13:57:47 437.305
BEESAT 28 May 13:53:34 13:55:57 14° 93° (E) 13:58:20 436.000
UKube-1 28 May 13:56:24 13:58:30 13° 294° (WNW) 14:00:35 .
JAS-2 28 May 13:56:42 14:03:06 34° 265° (W) 14:09:59 435.910
DANDE 28 May 14:13:21 14:15:30 12° 300° (WNW) 14:17:49 436.750
Gurwin Techsat 1B 28 May 14:15:23 14:20:41 79° 257° (WSW) 14:26:01 435.225
AO-85 28 May 14:22:45 14:26:36 26° 52° (NE) 14:30:10 145.980
Cosmos 2491 28 May 14:25:07 14:32:46 33° 74° (ENE) 14:40:19 435.465 / 435.565
YUBILEINY 28 May 14:25:41 14:28:41 12° 77° (ENE) 14:31:40 435.215
ITAMSAT 1 28 May 14:28:48 14:33:48 52° 72° (ENE) 14:38:49 435.822/435.867
AO-7 28 May 14:30:26 14:37:31 33° 62° (ENE) 14:44:36 29.400- 29.500
SWISSCUBE 28 May 14:59:35 15:04:24 86° 103° (ESE) 15:09:12 437.505
ITUPSAT 1 28 May 15:06:17 15:11:07 89° 104° (ESE) 15:15:56 437.325
BEESAT 28 May 15:29:20 15:33:57 50° 287° (WNW) 15:38:34 436.000
AO-85 28 May 16:03:17 16:06:56 25° 250° (WSW) 16:10:19 145.980
KKS-1 28 May 16:07:42 16:11:58 46° 100° (E) 16:16:12 437.445
ITAMSAT 1 28 May 16:10:37 16:13:30 15° 267° (W) 16:16:24 435.822/435.867
RS-15 28 May 16:12:09 16:22:23 43° 107° (ESE) 16:33:06 29.354- 29.394
YUBILEINY 28 May 16:15:19 16:24:01 83° 94° (E) 16:32:43 435.215
Cosmos 2491 28 May 16:21:31 16:29:42 47° 271° (W) 16:37:50 435.465 / 435.565
AO-7 28 May 16:21:56 16:29:53 50° 258° (WSW) 16:37:55 29.400- 29.500
HORYU 2 28 May 16:28:28 16:32:45 51° 74° (ENE) 16:37:02 437.375
MOZHAYETS 4 28 May 16:30:40 16:35:18 66° 101° (E) 16:39:54
Cosmos 2504 28 May 16:38:00 16:43:48 27° 85° (E) 16:49:48 435.465 / 435.565
STARS 28 May 16:40:24 16:44:41 55° 100° (E) 16:48:57 437.465
NOAA 15 28 May 16:57:54 17:01:44 21° 66° (ENE) 17:05:34 137.62
Cubesat XI-IV 28 May 17:07:24 17:10:41 17° 65° (ENE) 17:13:57 437.490
BRITE-PL 28 May 17:11:47 17:16:04 23° 68° (ENE) 17:20:22 437.365/2234.400
NOAA 18 28 May 17:13:40 17:18:04 25° 67° (ENE) 17:22:27 137.9125
GOMX 1 28 May 17:31:51 17:35:07 16° 66° (ENE) 17:38:20 467.674
KKS-1 28 May 17:45:57 17:48:05 13° 294° (WNW) 17:50:13 437.445
CUTE-I 28 May 17:51:13 17:56:15 45° 72° (ENE) 18:01:18 437.470
CUBESAT XI-V 28 May 17:59:04 18:03:46 64° 101° (E) 18:08:24 437.345
HORYU 2 28 May 18:08:12 18:09:32 11° 267° (W) 18:10:52 437.375
MOZHAYETS 4 28 May 18:10:58 18:11:51 10° 295° (WNW) 18:12:43
DOVE 4 28 May 18:14:25 18:18:03 19° 69° (ENE) 18:21:37 437.250
YUBILEINY 28 May 18:16:29 18:21:45 17° 292° (WNW) 18:27:04 435.215
STARS 28 May 18:19:13 18:20:32 11° 295° (WNW) 18:21:50 437.465
RS-15 28 May 18:23:39 18:34:31 51° 308° (NW) 18:46:04 29.354- 29.394
Cosmos 2504 28 May 18:29:57 18:36:43 44° 282° (WNW) 18:43:52 435.465 / 435.565
PCSat 28 May 18:30:39 18:35:41 38° 59° (ENE) 18:40:41 145.827
HO-68 28 May 18:30:53 18:35:07 17° 59° (ENE) 18:39:21 435.675
M-CUBED/EXP-1 PRIME 28 May 18:34:14 18:35:55 12° 64° (ENE) 18:37:34 437.505
LilacSat-2 28 May 18:35:51 18:39:35 56° 260° (W) 18:43:19 437.200
NOAA 15 28 May 18:36:09 18:41:09 42° 261° (W) 18:46:12 137.62
Cubesat XI-IV 28 May 18:45:06 18:50:15 53° 259° (W) 18:55:28 437.490
BRITE-PL 28 May 18:48:48 18:54:08 45° 262° (W) 18:59:35 437.365/2234.400
NOAA 18 28 May 18:53:32 18:58:29 35° 261° (W) 19:03:28 137.9125
GOMX 1 28 May 19:07:15 19:12:39 59° 260° (W) 19:18:00 467.674
O/OREOS (USA 219) 28 May 19:21:05 19:25:31 64° 69° (ENE) 19:29:57 437.305
CUTE-I 28 May 19:32:53 19:36:27 18° 266° (W) 19:40:02 437.470
CUBESAT XI-V 28 May 19:39:11 19:40:32 11° 295° (WNW) 19:41:52 437.345
STRAND 1 28 May 19:46:33 19:51:40 61° 101° (ESE) 19:56:44 437.568
BEESAT 2 28 May 19:48:54 19:51:18 15° 51° (NE) 19:53:42 435.950
CANX-2 28 May 19:49:17 19:53:22 55° 76° (ENE) 19:57:30 2200.000
SEEDS 28 May 19:49:50 19:53:34 33° 73° (ENE) 19:57:19 437.485
ISS 28 May 19:50:04 19:52:50 26° 130° (SE) 19:55:35 145.825
DOVE 4 28 May 19:50:25 19:55:24 43° 261° (W) 20:00:15 437.250
AUBIESAT-1 28 May 19:58:08 20:02:19 74° 254° (WSW) 20:06:13 437.475
M-CUBED/EXP-1 PRIME 28 May 20:06:03 20:10:10 46° 255° (WSW) 20:14:00 437.505
CINEMA 3 28 May 20:11:57 20:16:45 83° 256° (WSW) 20:21:21 145.822/145.860
GONETS M04 28 May 20:14:11 20:18:54 16° 79° (E) 20:23:35
PCSat 28 May 20:14:32 20:18:48 24° 253° (WSW) 20:23:04 145.827
CUTE 1.7 + AOD 2 28 May 20:16:11 20:20:22 78° 259° (W) 20:24:36 437.475
BEESAT 3 28 May 20:20:00 20:23:55 59° 60° (ENE) 20:27:47 437.485
